Year,Month,Day,Hour,Minute,Value (Times are PST for temperature in C)
2012,06,08,00,00,8.60
2012,06,08,00,01,8.60
2012,06,08,00,02,8.60
2012,06,08,00,03,8.60
2012,06,08,00,04,8.60
2012,06,08,00,05,8.60
2012,06,08,00,06,8.60
2012,06,08,00,07,8.60
2012,06,08,00,08,8.50
2012,06,08,00,09,8.50
2012,06,08,00,10,8.50
2012,06,08,00,11,8.50
2012,06,08,00,12,8.50
2012,06,08,00,13,8.50
2012,06,08,00,14,8.50
2012,06,08,00,15,8.50
2012,06,08,00,16,8.50
2012,06,08,00,17,8.50
2012,06,08,00,18,8.50
2012,06,08,00,19,8.50
2012,06,08,00,20,8.50
2012,06,08,00,21,8.50
2012,06,08,00,22,8.50
2012,06,08,00,23,8.50
2012,06,08,00,24,8.50
2012,06,08,00,25,8.50
2012,06,08,00,26,8.50
2012,06,08,00,27,8.50
2012,06,08,00,28,8.50
2012,06,08,00,29,8.50
2012,06,08,00,30,8.50
2012,06,08,00,31,8.60
2012,06,08,00,32,8.60
2012,06,08,00,33,8.50
2012,06,08,00,34,8.60
2012,06,08,00,35,8.60
2012,06,08,00,36,8.50
2012,06,08,00,37,8.50
2012,06,08,00,38,8.50
2012,06,08,00,39,8.50
2012,06,08,00,40,8.50
2012,06,08,00,41,8.50
2012,06,08,00,42,8.50
2012,06,08,00,43,8.50
2012,06,08,00,44,8.40
2012,06,08,00,45,8.50
2012,06,08,00,46,8.50
2012,06,08,00,47,8.50
2012,06,08,00,48,8.40
2012,06,08,00,49,8.40
2012,06,08,00,50,8.40
2012,06,08,00,51,8.40
2012,06,08,00,52,8.40
2012,06,08,00,53,8.40
2012,06,08,00,54,8.40
2012,06,08,00,55,8.40
2012,06,08,00,56,8.40
2012,06,08,00,57,8.40
2012,06,08,00,58,8.40
2012,06,08,00,59,8.40
2012,06,08,01,00,8.40
2012,06,08,01,01,8.40
2012,06,08,01,02,8.40
2012,06,08,01,03,8.40
2012,06,08,01,04,8.30
2012,06,08,01,05,8.40
2012,06,08,01,06,8.40
2012,06,08,01,07,8.40
2012,06,08,01,08,8.40
2012,06,08,01,09,8.40
2012,06,08,01,10,8.30
2012,06,08,01,11,8.30
2012,06,08,01,12,8.30
2012,06,08,01,13,8.30
2012,06,08,01,14,8.30
2012,06,08,01,15,8.30
2012,06,08,01,16,8.30
2012,06,08,01,17,8.30
2012,06,08,01,18,8.30
2012,06,08,01,19,8.30
2012,06,08,01,20,8.30
2012,06,08,01,21,8.30
2012,06,08,01,22,8.20
2012,06,08,01,23,8.20
2012,06,08,01,24,8.20
2012,06,08,01,25,8.20
2012,06,08,01,26,8.20
2012,06,08,01,27,8.20
2012,06,08,01,28,8.20
2012,06,08,01,29,8.20
2012,06,08,01,30,8.20
2012,06,08,01,31,8.20
2012,06,08,01,32,8.20
2012,06,08,01,33,8.20
2012,06,08,01,34,8.10
2012,06,08,01,35,8.10
2012,06,08,01,36,8.10
2012,06,08,01,37,8.10
2012,06,08,01,38,8.10
2012,06,08,01,39,8.10
2012,06,08,01,40,8.10
2012,06,08,01,41,8.10
2012,06,08,01,42,8.10
2012,06,08,01,43,8.20
2012,06,08,01,44,8.20
2012,06,08,01,45,8.20
2012,06,08,01,46,8.20
2012,06,08,01,47,8.20
2012,06,08,01,48,8.20
2012,06,08,01,49,8.20
2012,06,08,01,50,8.20
2012,06,08,01,51,8.20
2012,06,08,01,52,8.30
2012,06,08,01,53,8.30
2012,06,08,01,54,8.30
2012,06,08,01,55,8.30
2012,06,08,01,56,8.40
2012,06,08,01,57,8.40
2012,06,08,01,58,8.40
2012,06,08,01,59,8.40
2012,06,08,02,00,8.50
2012,06,08,02,01,8.50
2012,06,08,02,02,8.50
2012,06,08,02,03,8.50
2012,06,08,02,04,8.50
2012,06,08,02,05,8.50
2012,06,08,02,06,8.50
2012,06,08,02,07,8.50
2012,06,08,02,08,8.50
2012,06,08,02,09,8.50
2012,06,08,02,10,8.50
2012,06,08,02,11,8.50
2012,06,08,02,12,8.50
2012,06,08,02,13,8.50
2012,06,08,02,14,8.50
2012,06,08,02,15,8.50
2012,06,08,02,16,8.50
2012,06,08,02,17,8.50
2012,06,08,02,18,8.50
2012,06,08,02,19,8.50
2012,06,08,02,20,8.50
2012,06,08,02,21,8.40
2012,06,08,02,22,8.40
2012,06,08,02,23,8.40
2012,06,08,02,24,8.40
2012,06,08,02,25,8.40
2012,06,08,02,26,8.40
2012,06,08,02,27,8.40
2012,06,08,02,28,8.40
2012,06,08,02,29,8.40
2012,06,08,02,30,8.40
2012,06,08,02,31,8.40
2012,06,08,02,32,8.40
2012,06,08,02,33,8.40
2012,06,08,02,34,8.50
2012,06,08,02,35,8.50
2012,06,08,02,36,8.50
2012,06,08,02,37,8.50
2012,06,08,02,38,8.50
2012,06,08,02,39,8.50
2012,06,08,02,40,8.50
2012,06,08,02,41,8.50
2012,06,08,02,42,8.50
2012,06,08,02,43,8.50
2012,06,08,02,44,8.50
2012,06,08,02,45,8.50
2012,06,08,02,46,8.50
2012,06,08,02,47,8.50
2012,06,08,02,48,8.50
2012,06,08,02,49,8.50
2012,06,08,02,50,8.50
2012,06,08,02,51,8.50
2012,06,08,02,52,8.40
2012,06,08,02,53,8.40
2012,06,08,02,54,8.40
2012,06,08,02,55,8.40
2012,06,08,02,56,8.40
2012,06,08,02,57,8.40
2012,06,08,02,58,8.40
2012,06,08,02,59,8.40
2012,06,08,03,00,8.30
2012,06,08,03,01,8.30
2012,06,08,03,02,8.30
2012,06,08,03,03,8.30
2012,06,08,03,04,8.30
2012,06,08,03,05,8.30
2012,06,08,03,06,8.20
2012,06,08,03,07,8.20
2012,06,08,03,08,8.20
2012,06,08,03,09,8.20
2012,06,08,03,10,8.20
2012,06,08,03,11,8.20
2012,06,08,03,12,8.20
2012,06,08,03,13,8.20
2012,06,08,03,14,8.20
2012,06,08,03,15,8.20
2012,06,08,03,16,8.20
2012,06,08,03,17,8.20
2012,06,08,03,18,8.20
2012,06,08,03,19,8.20
2012,06,08,03,20,8.20
2012,06,08,03,21,8.20
2012,06,08,03,22,8.20
2012,06,08,03,23,8.20
2012,06,08,03,24,8.20
2012,06,08,03,25,8.20
2012,06,08,03,26,8.20
2012,06,08,03,27,8.20
2012,06,08,03,28,8.20
2012,06,08,03,29,8.20
2012,06,08,03,30,8.20
2012,06,08,03,31,8.20
2012,06,08,03,32,8.20
2012,06,08,03,33,8.20
2012,06,08,03,34,8.20
2012,06,08,03,35,8.20
2012,06,08,03,36,8.10
2012,06,08,03,37,8.10
2012,06,08,03,38,8.10
2012,06,08,03,39,8.10
2012,06,08,03,40,8.10
2012,06,08,03,41,8.00
2012,06,08,03,42,8.00
2012,06,08,03,43,8.00
2012,06,08,03,44,8.00
2012,06,08,03,45,8.00
2012,06,08,03,46,8.00
2012,06,08,03,47,8.00
2012,06,08,03,48,8.00
2012,06,08,03,49,8.00
2012,06,08,03,50,8.00
2012,06,08,03,51,8.00
2012,06,08,03,52,8.00
2012,06,08,03,53,8.00
2012,06,08,03,54,8.00
2012,06,08,03,55,8.00
2012,06,08,03,56,8.00
2012,06,08,03,57,8.00
2012,06,08,03,58,8.00
2012,06,08,03,59,8.00
2012,06,08,04,00,8.00
2012,06,08,04,01,8.00
2012,06,08,04,02,7.90
2012,06,08,04,03,7.90
2012,06,08,04,04,7.90
2012,06,08,04,05,7.90
2012,06,08,04,06,7.90
2012,06,08,04,07,7.90
2012,06,08,04,08,7.90
2012,06,08,04,09,7.90
2012,06,08,04,10,7.90
2012,06,08,04,11,7.90
2012,06,08,04,12,7.80
2012,06,08,04,13,7.80
2012,06,08,04,14,7.80
2012,06,08,04,15,7.80
2012,06,08,04,16,7.80
2012,06,08,04,17,7.80
2012,06,08,04,18,7.80
2012,06,08,04,19,7.80
2012,06,08,04,20,7.80
2012,06,08,04,21,7.80
2012,06,08,04,22,7.80
2012,06,08,04,23,7.80
2012,06,08,04,24,7.80
2012,06,08,04,25,7.80
2012,06,08,04,26,7.80
2012,06,08,04,27,7.80
2012,06,08,04,28,7.80
2012,06,08,04,29,7.80
2012,06,08,04,30,7.80
2012,06,08,04,31,7.80
2012,06,08,04,32,7.80
2012,06,08,04,33,7.80
2012,06,08,04,34,7.80
2012,06,08,04,35,7.80
2012,06,08,04,36,7.80
2012,06,08,04,37,7.80
2012,06,08,04,38,7.80
2012,06,08,04,39,7.80
2012,06,08,04,40,7.80
2012,06,08,04,41,7.80
2012,06,08,04,42,7.80
2012,06,08,04,43,7.80
2012,06,08,04,44,7.80
2012,06,08,04,45,7.80
2012,06,08,04,46,7.80
2012,06,08,04,47,7.90
2012,06,08,04,48,7.90
2012,06,08,04,49,7.90
2012,06,08,04,50,7.90
2012,06,08,04,51,7.90
2012,06,08,04,52,7.90
2012,06,08,04,53,7.90
2012,06,08,04,54,7.90
2012,06,08,04,55,7.90
2012,06,08,04,56,7.90
2012,06,08,04,57,7.90
2012,06,08,04,58,7.90
2012,06,08,04,59,7.90
2012,06,08,05,00,7.90
2012,06,08,05,01,7.90
2012,06,08,05,02,7.90
2012,06,08,05,03,7.80
2012,06,08,05,04,7.80
2012,06,08,05,05,7.80
2012,06,08,05,06,7.80
2012,06,08,05,07,7.80
2012,06,08,05,08,7.80
2012,06,08,05,09,7.80
2012,06,08,05,10,7.80
2012,06,08,05,11,7.80
2012,06,08,05,12,7.80
2012,06,08,05,13,7.90
2012,06,08,05,14,7.90
2012,06,08,05,15,7.90
2012,06,08,05,16,7.90
2012,06,08,05,17,7.90
2012,06,08,05,18,7.90
2012,06,08,05,19,7.90
2012,06,08,05,20,7.90
2012,06,08,05,21,7.90
2012,06,08,05,22,7.90
2012,06,08,05,23,7.90
2012,06,08,05,24,7.90
2012,06,08,05,25,7.90
2012,06,08,05,26,8.00
2012,06,08,05,27,8.00
2012,06,08,05,28,8.00
2012,06,08,05,29,8.00
2012,06,08,05,30,8.00
2012,06,08,05,31,8.00
2012,06,08,05,32,8.00
2012,06,08,05,33,8.00
2012,06,08,05,34,8.00
2012,06,08,05,35,8.00
2012,06,08,05,36,8.00
2012,06,08,05,37,8.10
2012,06,08,05,38,8.10
2012,06,08,05,39,8.10
2012,06,08,05,40,8.10
2012,06,08,05,41,8.10
2012,06,08,05,42,8.10
2012,06,08,05,43,8.10
2012,06,08,05,44,8.10
2012,06,08,05,45,8.10
2012,06,08,05,46,8.10
2012,06,08,05,47,8.10
2012,06,08,05,48,8.10
2012,06,08,05,49,8.10
2012,06,08,05,50,8.10
2012,06,08,05,51,8.10
2012,06,08,05,52,8.10
2012,06,08,05,53,8.10
2012,06,08,05,54,8.10
2012,06,08,05,55,8.10
2012,06,08,05,56,8.10
2012,06,08,05,57,8.10
2012,06,08,05,58,8.10
2012,06,08,05,59,8.10
2012,06,08,06,00,8.20
2012,06,08,06,01,8.20
2012,06,08,06,02,8.20
2012,06,08,06,03,8.20
2012,06,08,06,04,8.20
2012,06,08,06,05,8.20
2012,06,08,06,06,8.20
2012,06,08,06,07,8.20
2012,06,08,06,08,8.20
2012,06,08,06,09,8.20
2012,06,08,06,10,8.20
2012,06,08,06,11,8.20
2012,06,08,06,12,8.20
2012,06,08,06,13,8.20
2012,06,08,06,14,8.20
2012,06,08,06,15,8.20
2012,06,08,06,16,8.20
2012,06,08,06,17,8.20
2012,06,08,06,18,8.20
2012,06,08,06,19,8.20
2012,06,08,06,20,8.20
2012,06,08,06,21,8.20
2012,06,08,06,22,8.20
2012,06,08,06,23,8.20
2012,06,08,06,24,8.20
2012,06,08,06,25,8.20
2012,06,08,06,26,8.20
2012,06,08,06,27,8.20
2012,06,08,06,28,8.20
2012,06,08,06,29,8.20
2012,06,08,06,30,8.20
2012,06,08,06,31,8.30
2012,06,08,06,32,8.30
2012,06,08,06,33,8.30
2012,06,08,06,34,8.30
2012,06,08,06,35,8.30
2012,06,08,06,36,8.30
2012,06,08,06,37,8.40
2012,06,08,06,38,8.40
2012,06,08,06,39,8.40
2012,06,08,06,40,8.40
2012,06,08,06,41,8.40
2012,06,08,06,42,8.30
2012,06,08,06,43,8.30
2012,06,08,06,44,8.30
2012,06,08,06,45,8.40
2012,06,08,06,46,8.40
2012,06,08,06,47,8.40
2012,06,08,06,48,8.40
2012,06,08,06,49,8.40
2012,06,08,06,50,8.40
2012,06,08,06,51,8.40
2012,06,08,06,52,8.40
2012,06,08,06,53,8.30
2012,06,08,06,54,8.30
2012,06,08,06,55,8.30
2012,06,08,06,56,8.30
2012,06,08,06,57,8.30
2012,06,08,06,58,8.30
2012,06,08,06,59,8.30
2012,06,08,07,00,8.30
2012,06,08,07,01,8.40
2012,06,08,07,02,8.40
2012,06,08,07,03,8.40
2012,06,08,07,04,8.50
2012,06,08,07,05,8.50
2012,06,08,07,06,8.50
2012,06,08,07,07,8.50
2012,06,08,07,08,8.50
2012,06,08,07,09,8.50
2012,06,08,07,10,8.40
2012,06,08,07,11,8.40
2012,06,08,07,12,8.40
2012,06,08,07,13,8.40
2012,06,08,07,14,8.40
2012,06,08,07,15,8.40
2012,06,08,07,16,8.40
2012,06,08,07,17,8.40
2012,06,08,07,18,8.40
2012,06,08,07,19,8.40
2012,06,08,07,20,8.40
2012,06,08,07,21,8.50
2012,06,08,07,22,8.50
2012,06,08,07,23,8.40
2012,06,08,07,24,8.40
2012,06,08,07,25,8.40
2012,06,08,07,26,8.40
2012,06,08,07,27,8.40
2012,06,08,07,28,8.40
2012,06,08,07,29,8.40
2012,06,08,07,30,8.40
2012,06,08,07,31,8.40
2012,06,08,07,32,8.40
2012,06,08,07,33,8.40
2012,06,08,07,34,8.50
2012,06,08,07,35,8.50
2012,06,08,07,36,8.50
2012,06,08,07,37,8.50
2012,06,08,07,38,8.50
2012,06,08,07,39,8.50
2012,06,08,07,40,8.50
2012,06,08,07,41,8.50
2012,06,08,07,42,8.40
2012,06,08,07,43,8.40
2012,06,08,07,44,8.40
2012,06,08,07,45,8.40
2012,06,08,07,46,8.40
2012,06,08,07,47,8.50
2012,06,08,07,48,8.50
2012,06,08,07,49,8.60
2012,06,08,07,50,8.60
2012,06,08,07,51,8.60
2012,06,08,07,52,8.70
2012,06,08,07,53,8.70
2012,06,08,07,54,8.70
2012,06,08,07,55,8.70
2012,06,08,07,56,8.80
2012,06,08,07,57,8.90
2012,06,08,07,58,8.90
2012,06,08,07,59,9.00
2012,06,08,08,00,9.00
2012,06,08,08,01,9.00
2012,06,08,08,02,8.90
2012,06,08,08,03,8.80
2012,06,08,08,04,8.80
2012,06,08,08,05,8.90
2012,06,08,08,06,8.90
2012,06,08,08,07,8.80
2012,06,08,08,08,8.80
2012,06,08,08,09,8.80
2012,06,08,08,10,8.80
2012,06,08,08,11,8.80
2012,06,08,08,12,8.80
2012,06,08,08,13,8.80
2012,06,08,08,14,8.80
2012,06,08,08,15,8.80
2012,06,08,08,16,8.80
2012,06,08,08,17,8.80
2012,06,08,08,18,8.90
2012,06,08,08,19,8.90
2012,06,08,08,20,8.90
2012,06,08,08,21,9.00
2012,06,08,08,22,9.00
2012,06,08,08,23,9.00
2012,06,08,08,24,9.10
2012,06,08,08,25,9.10
2012,06,08,08,26,9.10
2012,06,08,08,27,9.10
2012,06,08,08,28,9.20
2012,06,08,08,29,9.10
2012,06,08,08,30,9.20
2012,06,08,08,31,9.10
2012,06,08,08,32,9.10
2012,06,08,08,33,9.10
2012,06,08,08,34,9.20
2012,06,08,08,35,9.20
2012,06,08,08,36,9.20
2012,06,08,08,37,9.20
2012,06,08,08,38,9.20
2012,06,08,08,39,9.20
2012,06,08,08,40,9.20
2012,06,08,08,41,9.10
2012,06,08,08,42,9.10
2012,06,08,08,43,9.10
2012,06,08,08,44,9.10
2012,06,08,08,45,9.10
2012,06,08,08,46,9.10
2012,06,08,08,47,9.20
2012,06,08,08,48,9.20
2012,06,08,08,49,9.30
2012,06,08,08,50,9.20
2012,06,08,08,51,9.20
2012,06,08,08,52,9.20
2012,06,08,08,53,9.10
2012,06,08,08,54,9.20
2012,06,08,08,55,9.20
2012,06,08,08,56,9.20
2012,06,08,08,57,9.30
2012,06,08,08,58,9.40
2012,06,08,08,59,9.40
2012,06,08,09,00,9.50
2012,06,08,09,01,9.60
2012,06,08,09,02,9.70
2012,06,08,09,03,9.70
2012,06,08,09,04,9.80
2012,06,08,09,05,9.90
2012,06,08,09,06,9.90
2012,06,08,09,07,9.90
2012,06,08,09,08,9.90
2012,06,08,09,09,9.70
2012,06,08,09,10,9.70
2012,06,08,09,11,9.60
2012,06,08,09,12,9.50
2012,06,08,09,13,9.50
2012,06,08,09,14,9.40
2012,06,08,09,15,9.50
2012,06,08,09,16,9.50
2012,06,08,09,17,9.40
2012,06,08,09,18,9.30
2012,06,08,09,19,9.20
2012,06,08,09,20,9.20
2012,06,08,09,21,9.30
2012,06,08,09,22,9.40
2012,06,08,09,23,9.50
2012,06,08,09,24,9.50
2012,06,08,09,25,9.60
2012,06,08,09,26,9.50
2012,06,08,09,27,9.40
2012,06,08,09,28,9.40
2012,06,08,09,29,9.30
2012,06,08,09,30,9.30
2012,06,08,09,31,9.40
2012,06,08,09,32,9.40
2012,06,08,09,33,9.30
2012,06,08,09,34,9.30
2012,06,08,09,35,9.40
2012,06,08,09,36,9.40
2012,06,08,09,37,9.40
2012,06,08,09,38,9.30
2012,06,08,09,39,9.20
2012,06,08,09,40,9.20
2012,06,08,09,41,9.20
2012,06,08,09,42,9.20
2012,06,08,09,43,9.20
2012,06,08,09,44,9.20
2012,06,08,09,45,9.20
2012,06,08,09,46,9.20
2012,06,08,09,47,9.20
2012,06,08,09,48,9.10
2012,06,08,09,49,9.10
2012,06,08,09,50,9.10
2012,06,08,09,51,9.20
2012,06,08,09,52,9.30
2012,06,08,09,53,9.30
2012,06,08,09,54,9.30
2012,06,08,09,55,9.40
2012,06,08,09,56,9.50
2012,06,08,09,57,9.50
2012,06,08,09,58,9.50
2012,06,08,09,59,9.50
2012,06,08,10,00,9.50
2012,06,08,10,01,9.50
2012,06,08,10,02,9.60
2012,06,08,10,03,9.50
2012,06,08,10,04,9.40
2012,06,08,10,05,9.40
2012,06,08,10,06,9.40
2012,06,08,10,07,9.50
2012,06,08,10,08,9.50
2012,06,08,10,09,9.60
2012,06,08,10,10,9.60
2012,06,08,10,11,9.70
2012,06,08,10,12,9.70
2012,06,08,10,13,9.70
2012,06,08,10,14,9.70
2012,06,08,10,15,9.70
2012,06,08,10,16,9.60
2012,06,08,10,17,9.50
2012,06,08,10,18,9.60
2012,06,08,10,19,9.70
2012,06,08,10,20,9.80
2012,06,08,10,21,9.80
2012,06,08,10,22,9.90
2012,06,08,10,23,9.90
2012,06,08,10,24,9.90
2012,06,08,10,25,9.80
2012,06,08,10,26,9.70
2012,06,08,10,27,9.70
2012,06,08,10,28,9.70
2012,06,08,10,29,9.70
2012,06,08,10,30,9.70
2012,06,08,10,31,9.70
2012,06,08,10,32,9.70
2012,06,08,10,33,9.70
2012,06,08,10,34,9.80
2012,06,08,10,35,9.80
2012,06,08,10,36,9.80
2012,06,08,10,37,9.80
2012,06,08,10,38,9.90
2012,06,08,10,39,9.90
2012,06,08,10,40,10.00
2012,06,08,10,41,10.00
2012,06,08,10,42,9.90
2012,06,08,10,43,9.80
2012,06,08,10,44,9.80
2012,06,08,10,45,9.80
2012,06,08,10,46,9.90
2012,06,08,10,47,9.90
2012,06,08,10,48,9.90
2012,06,08,10,49,9.90
2012,06,08,10,50,10.00
2012,06,08,10,51,10.00
2012,06,08,10,52,10.10
2012,06,08,10,53,10.20
2012,06,08,10,54,10.30
2012,06,08,10,55,10.30
2012,06,08,10,56,10.20
2012,06,08,10,57,10.00
2012,06,08,10,58,9.90
2012,06,08,10,59,9.80
2012,06,08,11,00,9.80
2012,06,08,11,01,9.80
2012,06,08,11,02,9.90
2012,06,08,11,03,10.00
2012,06,08,11,04,10.10
2012,06,08,11,05,10.10
2012,06,08,11,06,10.10
2012,06,08,11,07,10.10
2012,06,08,11,08,10.20
2012,06,08,11,09,10.30
2012,06,08,11,10,10.30
2012,06,08,11,11,10.20
2012,06,08,11,12,10.10
2012,06,08,11,13,10.10
2012,06,08,11,14,10.20
2012,06,08,11,15,10.20
2012,06,08,11,16,10.10
2012,06,08,11,17,10.10
2012,06,08,11,18,10.00
2012,06,08,11,19,10.00
2012,06,08,11,20,10.00
2012,06,08,11,21,10.10
2012,06,08,11,22,10.20
2012,06,08,11,23,10.50
2012,06,08,11,24,10.60
2012,06,08,11,25,10.60
2012,06,08,11,26,10.60
2012,06,08,11,27,10.60
2012,06,08,11,28,10.60
2012,06,08,11,29,10.70
2012,06,08,11,30,10.80
2012,06,08,11,31,10.90
2012,06,08,11,32,10.90
2012,06,08,11,33,10.90
2012,06,08,11,34,10.90
2012,06,08,11,35,11.00
2012,06,08,11,36,11.00
2012,06,08,11,37,10.80
2012,06,08,11,38,10.60
2012,06,08,11,39,10.50
2012,06,08,11,40,10.40
2012,06,08,11,41,10.40
2012,06,08,11,42,10.30
2012,06,08,11,43,10.40
2012,06,08,11,44,10.60
2012,06,08,11,45,10.60
2012,06,08,11,46,10.70
2012,06,08,11,47,10.80
2012,06,08,11,48,10.70
2012,06,08,11,49,10.70
2012,06,08,11,50,10.80
2012,06,08,11,51,10.90
2012,06,08,11,52,10.90
2012,06,08,11,53,10.90
2012,06,08,11,54,10.90
2012,06,08,11,55,11.00
2012,06,08,11,56,11.10
2012,06,08,11,57,11.20
2012,06,08,11,58,11.10
2012,06,08,11,59,10.90
2012,06,08,12,00,10.60
2012,06,08,12,01,10.50
2012,06,08,12,02,10.30
2012,06,08,12,03,10.20
2012,06,08,12,04,10.30
2012,06,08,12,05,10.40
2012,06,08,12,06,10.40
2012,06,08,12,07,10.40
2012,06,08,12,08,10.40
2012,06,08,12,09,10.40
2012,06,08,12,10,10.40
2012,06,08,12,11,10.50
2012,06,08,12,12,10.60
2012,06,08,12,13,10.60
2012,06,08,12,14,10.60
2012,06,08,12,15,10.60
2012,06,08,12,16,10.70
2012,06,08,12,17,10.90
2012,06,08,12,18,10.90
2012,06,08,12,19,10.90
2012,06,08,12,20,10.80
2012,06,08,12,21,10.80
2012,06,08,12,22,10.80
2012,06,08,12,23,10.60
2012,06,08,12,24,10.60
2012,06,08,12,25,10.60
2012,06,08,12,26,10.70
2012,06,08,12,27,10.80
2012,06,08,12,28,10.90
2012,06,08,12,29,10.90
2012,06,08,12,30,10.90
2012,06,08,12,31,11.10
2012,06,08,12,32,11.10
2012,06,08,12,33,11.10
2012,06,08,12,34,11.10
2012,06,08,12,35,11.10
2012,06,08,12,36,11.10
2012,06,08,12,37,11.10
2012,06,08,12,38,11.00
2012,06,08,12,39,10.90
2012,06,08,12,40,10.90
2012,06,08,12,41,11.00
2012,06,08,12,42,11.10
2012,06,08,12,43,11.30
2012,06,08,12,44,11.40
2012,06,08,12,45,11.50
2012,06,08,12,46,11.60
2012,06,08,12,47,11.60
2012,06,08,12,48,11.70
2012,06,08,12,49,11.70
2012,06,08,12,50,11.60
2012,06,08,12,51,11.60
2012,06,08,12,52,11.60
2012,06,08,12,53,11.60
2012,06,08,12,54,11.60
2012,06,08,12,55,11.60
2012,06,08,12,56,11.80
2012,06,08,12,57,11.80
2012,06,08,12,58,11.90
2012,06,08,12,59,11.90
2012,06,08,13,00,11.90
2012,06,08,13,01,11.90
2012,06,08,13,02,11.80
2012,06,08,13,03,11.80
2012,06,08,13,04,11.80
2012,06,08,13,05,11.80
2012,06,08,13,06,11.70
2012,06,08,13,07,11.60
2012,06,08,13,08,11.60
2012,06,08,13,09,11.60
2012,06,08,13,10,11.60
2012,06,08,13,11,11.60
2012,06,08,13,12,11.60
2012,06,08,13,13,11.70
2012,06,08,13,14,11.80
2012,06,08,13,15,11.80
2012,06,08,13,16,11.80
2012,06,08,13,17,11.90
2012,06,08,13,18,12.00
2012,06,08,13,19,12.00
2012,06,08,13,20,12.00
2012,06,08,13,21,12.00
2012,06,08,13,22,11.80
2012,06,08,13,23,11.80
2012,06,08,13,24,11.80
2012,06,08,13,25,11.80
2012,06,08,13,26,11.80
2012,06,08,13,27,11.70
2012,06,08,13,28,11.60
2012,06,08,13,29,11.50
2012,06,08,13,30,11.40
2012,06,08,13,31,11.40
2012,06,08,13,32,11.40
2012,06,08,13,33,11.60
2012,06,08,13,34,11.60
2012,06,08,13,35,11.60
2012,06,08,13,36,11.60
2012,06,08,13,37,11.70
2012,06,08,13,38,11.80
2012,06,08,13,39,11.80
2012,06,08,13,40,11.90
2012,06,08,13,41,11.90
2012,06,08,13,42,11.80
2012,06,08,13,43,11.80
2012,06,08,13,44,11.80
2012,06,08,13,45,11.80
2012,06,08,13,46,11.80
2012,06,08,13,47,11.80
2012,06,08,13,48,11.80
2012,06,08,13,49,11.80
2012,06,08,13,50,11.90
2012,06,08,13,51,12.10
2012,06,08,13,52,12.10
2012,06,08,13,53,12.10
2012,06,08,13,54,12.20
2012,06,08,13,55,12.30
2012,06,08,13,56,12.30
2012,06,08,13,57,12.30
2012,06,08,13,58,12.40
2012,06,08,13,59,12.50
2012,06,08,14,00,12.50
2012,06,08,14,01,12.70
2012,06,08,14,02,12.70
2012,06,08,14,03,12.70
2012,06,08,14,04,12.80
2012,06,08,14,05,13.00
2012,06,08,14,06,13.00
2012,06,08,14,07,12.90
2012,06,08,14,08,13.00
2012,06,08,14,09,13.10
2012,06,08,14,10,13.20
2012,06,08,14,11,13.20
2012,06,08,14,12,13.20
2012,06,08,14,13,13.20
2012,06,08,14,14,13.20
2012,06,08,14,15,13.20
2012,06,08,14,16,13.20
2012,06,08,14,17,13.20
2012,06,08,14,18,13.30
2012,06,08,14,19,13.30
2012,06,08,14,20,13.30
2012,06,08,14,21,13.30
2012,06,08,14,22,13.30
2012,06,08,14,23,13.30
2012,06,08,14,24,13.40
2012,06,08,14,25,13.50
2012,06,08,14,26,13.60
2012,06,08,14,27,13.70
2012,06,08,14,28,13.70
2012,06,08,14,29,13.80
2012,06,08,14,30,13.90
2012,06,08,14,31,14.00
2012,06,08,14,32,14.10
2012,06,08,14,33,14.30
2012,06,08,14,34,14.40
2012,06,08,14,35,14.60
2012,06,08,14,36,14.40
2012,06,08,14,37,14.20
2012,06,08,14,38,13.90
2012,06,08,14,39,13.80
2012,06,08,14,40,13.70
2012,06,08,14,41,13.60
2012,06,08,14,42,13.40
2012,06,08,14,43,13.20
2012,06,08,14,44,13.00
2012,06,08,14,45,12.80
2012,06,08,14,46,12.70
2012,06,08,14,47,12.50
2012,06,08,14,48,12.50
2012,06,08,14,49,12.40
2012,06,08,14,50,12.40
2012,06,08,14,51,12.30
2012,06,08,14,52,12.20
2012,06,08,14,53,12.10
2012,06,08,14,54,12.10
2012,06,08,14,55,12.00
2012,06,08,14,56,12.00
2012,06,08,14,57,12.00
2012,06,08,14,58,12.10
2012,06,08,14,59,12.20
2012,06,08,15,00,12.20
2012,06,08,15,01,12.30
2012,06,08,15,02,12.30
2012,06,08,15,03,12.30
2012,06,08,15,04,12.30
2012,06,08,15,05,12.40
2012,06,08,15,06,12.40
2012,06,08,15,07,12.50
2012,06,08,15,08,12.60
2012,06,08,15,09,12.60
2012,06,08,15,10,12.60
2012,06,08,15,11,12.60
2012,06,08,15,12,12.70
2012,06,08,15,13,12.70
2012,06,08,15,14,12.70
2012,06,08,15,15,12.70
2012,06,08,15,16,12.80
2012,06,08,15,17,12.90
2012,06,08,15,18,13.00
2012,06,08,15,19,13.10
2012,06,08,15,20,13.20
2012,06,08,15,21,13.30
2012,06,08,15,22,13.40
2012,06,08,15,23,13.50
2012,06,08,15,24,13.70
2012,06,08,15,25,13.60
2012,06,08,15,26,13.50
2012,06,08,15,27,13.40
2012,06,08,15,28,13.40
2012,06,08,15,29,13.30
2012,06,08,15,30,13.20
2012,06,08,15,31,13.20
2012,06,08,15,32,13.20
2012,06,08,15,33,13.30
2012,06,08,15,34,13.40
2012,06,08,15,35,13.50
2012,06,08,15,36,13.60
2012,06,08,15,37,13.70
2012,06,08,15,38,13.80
2012,06,08,15,39,13.90
2012,06,08,15,40,14.00
2012,06,08,15,41,14.00
2012,06,08,15,42,14.10
2012,06,08,15,43,14.20
2012,06,08,15,44,14.10
2012,06,08,15,45,14.10
2012,06,08,15,46,14.10
2012,06,08,15,47,14.10
2012,06,08,15,48,14.10
2012,06,08,15,49,14.00
2012,06,08,15,50,13.90
2012,06,08,15,51,13.90
2012,06,08,15,52,13.80
2012,06,08,15,53,13.80
2012,06,08,15,54,13.80
2012,06,08,15,55,13.90
2012,06,08,15,56,13.90
2012,06,08,15,57,13.80
2012,06,08,15,58,13.80
2012,06,08,15,59,13.80
2012,06,08,16,00,13.80
2012,06,08,16,01,13.70
2012,06,08,16,02,13.60
2012,06,08,16,03,13.60
2012,06,08,16,04,13.50
2012,06,08,16,05,13.50
2012,06,08,16,06,13.40
2012,06,08,16,07,13.40
2012,06,08,16,08,13.40
2012,06,08,16,09,13.30
2012,06,08,16,10,13.30
2012,06,08,16,11,13.10
2012,06,08,16,12,13.00
2012,06,08,16,13,12.90
2012,06,08,16,14,12.80
2012,06,08,16,15,12.80
2012,06,08,16,16,12.80
2012,06,08,16,17,12.80
2012,06,08,16,18,12.70
2012,06,08,16,19,12.70
2012,06,08,16,20,12.70
2012,06,08,16,21,12.70
2012,06,08,16,22,12.70
2012,06,08,16,23,12.70
2012,06,08,16,24,12.70
2012,06,08,16,25,12.70
2012,06,08,16,26,12.70
2012,06,08,16,27,12.70
2012,06,08,16,28,12.70
2012,06,08,16,29,12.70
2012,06,08,16,30,12.70
2012,06,08,16,31,12.80
2012,06,08,16,32,12.80
2012,06,08,16,33,13.00
2012,06,08,16,34,13.10
2012,06,08,16,35,13.10
2012,06,08,16,36,13.20
2012,06,08,16,37,13.30
2012,06,08,16,38,13.40
2012,06,08,16,39,13.50
2012,06,08,16,40,13.60
2012,06,08,16,41,13.60
2012,06,08,16,42,13.70
2012,06,08,16,43,13.70
2012,06,08,16,44,13.70
2012,06,08,16,45,13.80
2012,06,08,16,46,13.90
2012,06,08,16,47,14.00
2012,06,08,16,48,14.00
2012,06,08,16,49,14.00
2012,06,08,16,50,14.00
2012,06,08,16,51,14.10
2012,06,08,16,52,14.00
2012,06,08,16,53,13.90
2012,06,08,16,54,13.90
2012,06,08,16,55,13.90
2012,06,08,16,56,13.90
2012,06,08,16,57,13.90
2012,06,08,16,58,13.90
2012,06,08,16,59,13.80
2012,06,08,17,00,13.90
2012,06,08,17,01,13.90
2012,06,08,17,02,14.00
2012,06,08,17,03,14.00
2012,06,08,17,04,14.00
2012,06,08,17,05,13.90
2012,06,08,17,06,13.90
2012,06,08,17,07,13.90
2012,06,08,17,08,13.80
2012,06,08,17,09,13.80
2012,06,08,17,10,13.80
2012,06,08,17,11,13.70
2012,06,08,17,12,13.70
2012,06,08,17,13,13.70
2012,06,08,17,14,13.60
2012,06,08,17,15,13.50
2012,06,08,17,16,13.50
2012,06,08,17,17,13.50
2012,06,08,17,18,13.40
2012,06,08,17,19,13.40
2012,06,08,17,20,13.40
2012,06,08,17,21,13.30
2012,06,08,17,22,13.30
2012,06,08,17,23,13.30
2012,06,08,17,24,13.30
2012,06,08,17,25,13.30
2012,06,08,17,26,13.40
2012,06,08,17,27,13.40
2012,06,08,17,28,13.40
2012,06,08,17,29,13.40
2012,06,08,17,30,13.40
2012,06,08,17,31,13.40
2012,06,08,17,32,13.40
2012,06,08,17,33,13.40
2012,06,08,17,34,13.40
2012,06,08,17,35,13.50
2012,06,08,17,36,13.50
2012,06,08,17,37,13.50
2012,06,08,17,38,13.40
2012,06,08,17,39,13.40
2012,06,08,17,40,13.30
2012,06,08,17,41,13.30
2012,06,08,17,42,13.30
2012,06,08,17,43,13.30
2012,06,08,17,44,13.20
2012,06,08,17,45,13.20
2012,06,08,17,46,13.10
2012,06,08,17,47,13.10